Location: Julian California
(33.0790°N, 116.6010°W)
Time: 01:33:39
(UTC-08:00)

SL-08 RB Rocket - Pass Details

Date: 19 May 2017
Orbit: 648 x 685 km, 98.0° (Epoch: 23 November)

Event Time Altitude Azimuth Distance (km) Brightness Sun altitude
Exits shadow 22:01:24 59° 54° (NE) 752 3.8 -24.4°
Drops below altitude 10° 22:05:29 10° 356° (N) 2,050 6.9 -24.9°
Sets 22:07:43 0° 353° (N) 2,963 7.9 -25.3°
